CW6538 Cattolica IT current weather conditions

sailwx.info

Wind from 169 at 3 knots gusting 4

Air temperature 11.7° C
Dewpoint 7.4° C

Last reported at 2016-Apr-29 20:44 UTC.
Time now 2016-Apr-29 21:44 UTC

Location: N 43°58' E 012°44'.
View on Google Maps.

See reports from other nearby stations

  
Tides and Currents Weather Stations Pressure Air Temp Water Temp Dewpoint Dewpoint Depression Visibility Wind Speed Wind Dir Waves Ship Positions
date/time (UTC)wind fromknots sea level pressurealtimeterstation pressurevisibilityair tempwater tempwave heightnotes
2016-Apr-29 20:44 169 3 gusting 4 11.7
2016-Apr-29 20:39 165 2 gusting 4 11.7
2016-Apr-29 20:34 165 2 gusting 5 11.7
2016-Apr-29 20:29 163 2 gusting 5 11.7
2016-Apr-29 20:19 150 2 gusting 5 12.2
2016-Apr-29 20:14 151 2 gusting 5 12.2
2016-Apr-29 20:09 140 4 gusting 5 12.2
2016-Apr-29 19:59 151 1 gusting 4 12.2
2016-Apr-29 19:54 159 1 gusting 5 12.8
2016-Apr-29 19:44 167 1 gusting 5 12.8
2016-Apr-29 19:39 171 2 gusting 4 12.8
2016-Apr-29 19:34 151 2 gusting 4 12.8
2016-Apr-29 19:24 144 1 gusting 4 12.8
2016-Apr-29 19:19 127 2 gusting 4 13.3
2016-Apr-29 19:14 115 1 gusting 6 13.3
2016-Apr-29 19:08 132 4 gusting 6 13.3
2016-Apr-29 19:04 144 1 gusting 5 13.3
2016-Apr-29 18:59 144 0 gusting 5 13.9
2016-Apr-29 18:54 142 2 gusting 5 13.9
2016-Apr-29 18:44 154 1 gusting 5 13.9
2016-Apr-29 18:38 134 2 gusting 5 13.9
2016-Apr-29 18:34 138 2 gusting 4 13.9
2016-Apr-29 18:29 119 2 gusting 5 14.4
2016-Apr-29 18:24 119 1 gusting 5 14.4
2016-Apr-29 18:19 136 1 gusting 5 14.4
2016-Apr-29 18:09 117 1 gusting 6 14.4
2016-Apr-29 18:04 125 4 gusting 6 15.0
2016-Apr-29 17:59 132 0 gusting 5 15.0
2016-Apr-29 17:49 139 1 gusting 6 15.0
2016-Apr-29 17:44 130 3 gusting 6 15.0
2016-Apr-29 17:39 143 3 gusting 6 15.0
2016-Apr-29 17:34 141 1 gusting 4 15.0
2016-Apr-29 17:29 126 2 gusting 4 15.0
2016-Apr-29 17:24 130 2 gusting 5 15.0
2016-Apr-29 17:19 143 2 gusting 5 15.6
2016-Apr-29 17:14 123 3 gusting 5 15.6
2016-Apr-29 17:09 151 2 gusting 5 15.6
2016-Apr-29 17:04 128 2 gusting 4 15.6
2016-Apr-29 16:59 139 2 gusting 4 15.6
2016-Apr-29 16:54 165 2 gusting 4 15.6
2016-Apr-29 16:49 098 3 gusting 5 15.6
2016-Apr-29 16:44 116 2 gusting 5 16.1
2016-Apr-29 16:39 078 2 gusting 4 16.1
2016-Apr-29 16:34 047 0 gusting 5 16.1
2016-Apr-29 16:29 074 2 gusting 6 16.7
2016-Apr-29 16:24 086 4 gusting 6 16.7
2016-Apr-29 16:19 052 3 gusting 6 16.7
2016-Apr-29 16:14 082 4 gusting 7 16.7
2016-Apr-29 16:09 050 5 gusting 7 16.1
2016-Apr-29 16:04 059 5 gusting 6 16.7
2016-Apr-29 15:59 066 4 gusting 6 16.7
2016-Apr-29 15:54 042 4 gusting 7 16.7
2016-Apr-29 15:49 071 5 gusting 7 16.7
2016-Apr-29 15:44 057 3 gusting 7 16.7
2016-Apr-29 15:39 036 5 gusting 7 16.7
2016-Apr-29 15:34 080 4 gusting 7 16.1
2016-Apr-29 15:29 060 6 gusting 8 16.1
2016-Apr-29 15:24 042 5 gusting 9 16.1
2016-Apr-29 15:19 017 5 gusting 10 16.7
2016-Apr-29 15:14 045 5 gusting 10 16.7
2016-Apr-29 15:09 104 4 gusting 9 16.7
2016-Apr-29 15:04 051 5 gusting 10 16.7
2016-Apr-29 14:59 078 5 gusting 11 16.1
2016-Apr-29 14:54 080 7 gusting 9 16.7
2016-Apr-29 14:49 061 5 gusting 10 16.1
2016-Apr-29 14:44 059 5 gusting 10 16.1
2016-Apr-29 14:39 024 7 gusting 10 16.7
2016-Apr-29 14:34 069 5 gusting 11 16.7
2016-Apr-29 14:29 055 7 gusting 11 16.7
2016-Apr-29 14:24 073 6 gusting 11 16.7
2016-Apr-29 14:19 068 7 gusting 11 16.7
2016-Apr-29 14:14 052 6 gusting 9 16.7
2016-Apr-29 14:09 037 6 gusting 10 17.2
2016-Apr-29 14:04 042 6 gusting 10 16.7
2016-Apr-29 13:59 031 6 gusting 10 16.7
2016-Apr-29 13:54 020 6 gusting 10 17.2
2016-Apr-29 13:49 056 6 gusting 11 17.2
2016-Apr-29 13:44 061 6 gusting 10 17.2
2016-Apr-29 13:39 033 6 gusting 10 16.7
2016-Apr-29 13:34 036 6 gusting 10 16.7
2016-Apr-29 13:28 105 6 gusting 9 17.2
2016-Apr-29 13:24 034 6 gusting 9 17.2
2016-Apr-29 13:19 019 6 gusting 9 17.2
2016-Apr-29 13:14 043 5 gusting 9 17.2
2016-Apr-29 13:09 031 4 gusting 10 16.7
2016-Apr-29 13:04 040 6 gusting 10 17.2
2016-Apr-29 12:59 082 4 gusting 9 17.2
2016-Apr-29 12:54 046 6 gusting 9 17.2
2016-Apr-29 12:49 113 6 gusting 9 17.2
2016-Apr-29 12:44 056 4 gusting 8 17.2
2016-Apr-29 12:39 065 3 gusting 10 17.2
2016-Apr-29 12:34 084 7 gusting 9 17.2
2016-Apr-29 12:29 046 5 gusting 10 16.7
2016-Apr-29 12:24 062 6 gusting 10 16.7
2016-Apr-29 12:19 044 4 gusting 10 17.2
2016-Apr-29 12:14 005 6 gusting 10 17.2
2016-Apr-29 12:09 051 4 gusting 9 17.2
2016-Apr-29 12:04 055 5 gusting 9 17.2
2016-Apr-29 11:59 034 5 gusting 9 17.2
2016-Apr-29 11:54 005 5 gusting 10 17.2
2016-Apr-29 11:49 077 4 gusting 11 17.2
2016-Apr-29 11:44 065 6 gusting 11 17.2
2016-Apr-29 11:39 015 6 gusting 11 17.2
2016-Apr-29 11:34 063 6 gusting 11 17.2
2016-Apr-29 11:29 075 6 gusting 10 17.2
2016-Apr-29 11:24 058 6 gusting 10 16.7
2016-Apr-29 11:19 069 5 gusting 11 17.2
2016-Apr-29 11:14 073 7 gusting 11 16.7
2016-Apr-29 11:09 075 6 gusting 10 17.2
2016-Apr-29 11:04 023 7 gusting 10 16.7
2016-Apr-29 10:59 051 6 gusting 11 17.2
2016-Apr-29 10:54 038 7 gusting 11 17.2
2016-Apr-29 10:49 032 5 gusting 10 17.2
2016-Apr-29 10:44 022 7 gusting 11 16.7
2016-Apr-29 10:39 026 6 gusting 11 17.2
2016-Apr-29 10:34 047 6 gusting 10 17.2
2016-Apr-29 10:29 055 4 gusting 11 16.7
2016-Apr-29 10:24 016 5 gusting 11 16.7
2016-Apr-29 10:19 044 6 gusting 10 16.7
2016-Apr-29 10:13 030 6 gusting 9 16.7
2016-Apr-29 10:08 022 6 gusting 9 16.7
2016-Apr-29 10:04 034 7 gusting 9 16.7
2016-Apr-29 09:59 054 6 gusting 9 16.7
2016-Apr-29 09:54 037 4 gusting 9 16.7
2016-Apr-29 09:49 064 6 gusting 10 16.7
2016-Apr-29 09:44 053 5 gusting 10 16.1
2016-Apr-29 09:39 074 4 gusting 9 16.7
2016-Apr-29 09:34 355 6 gusting 9 16.1
2016-Apr-29 09:29 042 6 gusting 9 16.1
2016-Apr-29 09:24 069 5 gusting 9 16.1
2016-Apr-29 09:19 015 6 gusting 9 15.6
2016-Apr-29 09:14 015 6 gusting 9 15.6
2016-Apr-29 09:09 009 6 gusting 9 15.6
2016-Apr-29 09:04 046 6 gusting 9 15.6
2016-Apr-29 08:59 025 6 gusting 10 15.6
2016-Apr-29 08:54 057 7 gusting 10 15.6
2016-Apr-29 08:49 005 3 gusting 6 15.6
2016-Apr-29 08:44 050 4 gusting 6 15.0
2016-Apr-29 08:39 038 5 gusting 6 15.0
2016-Apr-29 08:34 024 5 gusting 7 15.0
2016-Apr-29 08:29 009 5 gusting 7 15.0
2016-Apr-29 08:24 005 4 gusting 7 15.0
2016-Apr-29 08:19 344 4 gusting 7 15.0
2016-Apr-29 08:14 337 5 gusting 6 14.4
2016-Apr-29 08:09 325 1 gusting 6 14.4
2016-Apr-29 08:04 355 3 gusting 6 13.9
2016-Apr-29 07:59 355 3 gusting 6 13.9
2016-Apr-29 07:54 343 4 gusting 6 13.9
2016-Apr-29 07:49 320 4 gusting 6 13.9
2016-Apr-29 07:44 331 5 gusting 6 13.9
2016-Apr-29 07:38 332 1 gusting 6 13.9
2016-Apr-29 07:33 319 4 gusting 6 13.3
2016-Apr-29 07:29 336 4 gusting 6 13.3
2016-Apr-29 07:24 325 3 gusting 6 13.3
2016-Apr-29 07:19 333 4 gusting 7 13.9
2016-Apr-29 07:14 348 3 gusting 7 13.9
2016-Apr-29 07:09 321 4 gusting 6 13.9
2016-Apr-29 07:04 315 3 gusting 6 13.3
2016-Apr-29 06:58 331 2 gusting 6 13.3
2016-Apr-29 06:54 323 2 gusting 5 12.8
2016-Apr-29 06:48 340 2 gusting 5 12.8
2016-Apr-29 06:43 349 2 gusting 5 12.8
2016-Apr-29 06:38 326 1 gusting 4 12.8
2016-Apr-29 06:34 326 1 gusting 4 12.2
2016-Apr-29 06:29 315 2 gusting 4 12.2
2016-Apr-29 06:24 323 12.2
2016-Apr-29 06:19 323 12.2
2016-Apr-29 06:14 185 0 gusting 2 12.2
2016-Apr-29 06:09 184 11.7
2016-Apr-29 06:03 184 11.7
2016-Apr-29 05:59 184 11.7
2016-Apr-29 05:54 184 11.7
2016-Apr-29 05:49 184 11.7
2016-Apr-29 05:44 184 11.1
2016-Apr-29 05:39 185 11.1
2016-Apr-29 05:34 184 10.6
2016-Apr-29 05:29 185 10.6
2016-Apr-29 05:23 185 10.6
2016-Apr-29 05:19 185 0 gusting 1 10.6
2016-Apr-29 05:14 185 10.0
2016-Apr-29 05:09 184 0 gusting 3 10.0
2016-Apr-29 05:04 184 10.0
2016-Apr-29 04:58 185 10.0
2016-Apr-29 04:54 184 10.0
2016-Apr-29 04:49 184 10.0
2016-Apr-29 04:43 184 10.0
2016-Apr-29 04:39 185 0 gusting 3 10.0
2016-Apr-29 04:34 184 0 gusting 3 10.0
2016-Apr-29 04:29 184 10.0
2016-Apr-29 04:23 185 2 gusting 4 10.0
2016-Apr-29 04:18 212 2 gusting 4 10.0
2016-Apr-29 04:14 213 10.0
2016-Apr-29 04:09 212 1 gusting 3 10.6
2016-Apr-29 04:04 211 10.6
2016-Apr-29 03:58 211 10.6
2016-Apr-29 03:54 212 0 gusting 3 10.6
2016-Apr-29 03:49 211 0 gusting 4 10.6
2016-Apr-29 03:44 212 2 gusting 4 10.6
2016-Apr-29 03:39 212 0 gusting 3 10.6
2016-Apr-29 03:34 211 0 gusting 3 10.6
2016-Apr-29 03:28 211 1 gusting 3 10.6
2016-Apr-29 03:24 252 1 gusting 3 10.6
2016-Apr-29 03:19 252 10.6
2016-Apr-29 03:09 252 1 gusting 4 10.6
2016-Apr-29 03:04 253 2 gusting 4 10.6
2016-Apr-29 02:58 275 1 gusting 3 10.6
2016-Apr-29 02:54 275 0 gusting 3 10.6
2016-Apr-29 02:49 275 0 gusting 3 10.6
2016-Apr-29 02:44 274 10.6
2016-Apr-29 02:33 274 11.1
2016-Apr-29 02:28 275 11.1
2016-Apr-29 02:19 275 11.1
2016-Apr-29 02:14 275 11.1
2016-Apr-29 02:09 275 0 gusting 3 11.1
2016-Apr-29 02:03 275 11.1
2016-Apr-29 01:58 275 11.1
2016-Apr-29 01:54 275 11.1
2016-Apr-29 01:48 275 11.1
2016-Apr-29 01:43 275 11.1
2016-Apr-29 01:39 275 1 gusting 3 11.1
2016-Apr-29 01:34 275 0 gusting 3 11.1
2016-Apr-29 01:29 275 0 gusting 5 11.1
2016-Apr-29 01:24 275 0 gusting 5 11.1
2016-Apr-29 01:19 275 0 gusting 5 11.1
2016-Apr-29 01:14 275 2 gusting 5 11.1
2016-Apr-29 01:09 261 1 gusting 4 11.1
2016-Apr-29 01:03 253 1 gusting 5 11.1
2016-Apr-29 00:59 245 2 gusting 5 11.1
2016-Apr-29 00:53 238 1 gusting 4 11.1
2016-Apr-29 00:48 238 1 gusting 4 11.1
2016-Apr-29 00:44 238 11.1
2016-Apr-29 00:39 238 11.1
2016-Apr-29 00:34 238 11.1
2016-Apr-29 00:29 238 11.1
2016-Apr-29 00:24 238 11.1
2016-Apr-29 00:19 238 0 gusting 2 11.1
2016-Apr-29 00:14 238 1 gusting 3 11.1
2016-Apr-29 00:09 238 1 gusting 4 11.1
2016-Apr-29 00:04 238 2 gusting 4 11.1
2016-Apr-28 23:58 238 0 gusting 1 11.1
2016-Apr-28 23:53 238 0 gusting 1 11.1
2016-Apr-28 23:44 238 11.1
2016-Apr-28 23:38 238 11.1
2016-Apr-28 23:34 238 11.1
2016-Apr-28 23:29 238 11.1
2016-Apr-28 23:24 238 11.1
2016-Apr-28 23:19 238 11.1
2016-Apr-28 23:13 238 11.1
2016-Apr-28 23:09 238 11.7
2016-Apr-28 23:04 238 0 gusting 1 11.7
2016-Apr-28 22:59 238 11.7
2016-Apr-28 22:54 238 2 gusting 4 11.7
2016-Apr-28 22:49 238 11.7
2016-Apr-28 22:44 238 11.7
2016-Apr-28 22:38 238 1 gusting 3 11.7
2016-Apr-28 22:33 238 11.7
2016-Apr-28 22:29 238 11.7
2016-Apr-28 22:24 238 1 gusting 5 12.2
2016-Apr-28 22:18 238 3 gusting 5 12.2
2016-Apr-28 22:14 015 12.2
2016-Apr-28 22:09 015 2 gusting 4 12.2
2016-Apr-28 22:04 015 1 gusting 4 12.2
2016-Apr-28 21:59 015 12.2
2016-Apr-28 21:49 317 12.2
2016-Apr-28 21:44 317 12.2
2016-Apr-28 21:39 317 12.2
2016-Apr-28 21:34 316 1 gusting 2 12.2
2016-Apr-28 21:24 316 1 gusting 4 12.2
2016-Apr-28 21:19 220 12.2
2016-Apr-28 21:14 220 12.2
2016-Apr-28 21:09 205 12.2
2016-Apr-28 21:04 205 12.2
2016-Apr-28 20:54 205 12.2
2016-Apr-28 20:49 205 12.2
2016-Apr-28 20:44 205 12.2
2016-Apr-28 20:39 205 12.2
2016-Apr-28 20:34 205 12.2
2016-Apr-28 20:29 205 12.2
2016-Apr-28 20:24 205 12.2
2016-Apr-28 20:18 205 12.2
2016-Apr-28 20:09 205 12.2
2016-Apr-28 20:04 205 12.2
2016-Apr-28 19:54 205 12.2
2016-Apr-28 19:49 205 0 gusting 1 12.2
2016-Apr-28 19:44 205 12.2
2016-Apr-28 19:39 205 12.2
2016-Apr-28 19:34 205 0 gusting 4 12.2
2016-Apr-28 19:29 205 12.2
2016-Apr-28 19:24 205 1 gusting 4 12.2
2016-Apr-28 19:19 202 2 gusting 4 12.2
2016-Apr-28 19:14 198 1 gusting 4 12.2
2016-Apr-28 19:09 198 1 gusting 4 12.2
2016-Apr-28 19:03 188 1 gusting 5 12.2
2016-Apr-28 18:59 188 2 gusting 5 12.2
2016-Apr-28 18:54 169 2 gusting 5 11.7
2016-Apr-28 18:49 157 1 gusting 4 11.7
2016-Apr-28 18:39 146 0 gusting 2 11.7
2016-Apr-28 18:34 147 1 gusting 3 11.7
2016-Apr-28 18:28 146 0 gusting 1 11.7
2016-Apr-28 18:24 147 0 gusting 1 11.7
2016-Apr-28 18:19 146 11.7
2016-Apr-28 18:14 146 11.7
2016-Apr-28 18:09 146 11.7
2016-Apr-28 18:04 147 11.7
2016-Apr-28 17:59 146 11.7
2016-Apr-28 17:54 147 11.7
2016-Apr-28 17:44 146 11.7
2016-Apr-28 17:39 146 11.7
2016-Apr-28 17:34 146 1 gusting 3 11.7
2016-Apr-28 17:29 146 1 gusting 3 11.7
2016-Apr-28 17:24 249 11.7
2016-Apr-28 17:19 260 11.7
2016-Apr-28 17:14 260 0 gusting 3 11.7
2016-Apr-28 17:09 191 11.7
2016-Apr-28 17:04 190 11.7
2016-Apr-28 16:59 191 1 gusting 4 11.7
2016-Apr-28 16:54 190 11.7
2016-Apr-28 16:49 199 2 gusting 4 11.7
2016-Apr-28 16:44 238 1 gusting 2 11.7
2016-Apr-28 16:39 238 0 gusting 3 11.7
2016-Apr-28 16:34 238 1 gusting 3 11.7
2016-Apr-28 16:29 330 0 gusting 2 11.7
2016-Apr-28 16:19 330 0 gusting 3 11.7
2016-Apr-28 16:14 330 0 gusting 2 11.7
2016-Apr-28 16:09 330 11.7
2016-Apr-28 16:04 330 11.7
2016-Apr-28 15:54 330 11.7
2016-Apr-28 15:49 330 11.7
2016-Apr-28 15:44 330 11.7
2016-Apr-28 15:39 330 11.7
2016-Apr-28 15:34 330 11.7
2016-Apr-28 15:29 330 11.7
2016-Apr-28 15:24 330 11.7
2016-Apr-28 15:19 330 0 gusting 3 11.7
2016-Apr-28 15:14 330 0 gusting 3 11.7
2016-Apr-28 15:09 330 0 gusting 4 11.7
2016-Apr-28 15:04 330 2 gusting 4 11.7
2016-Apr-28 14:59 330 1 gusting 4 11.7
2016-Apr-28 14:49 330 1 gusting 4 11.7
2016-Apr-28 14:44 330 2 gusting 4 11.7
2016-Apr-28 14:39 330 0 gusting 4 11.7
2016-Apr-28 14:34 330 11.7
2016-Apr-28 14:29 330 0 gusting 3 11.7
2016-Apr-28 14:24 330 0 gusting 3 11.7
2016-Apr-28 14:19 330 11.7
2016-Apr-28 14:14 330 11.7
2016-Apr-28 14:09 329 1 gusting 3 11.7
2016-Apr-28 14:04 329 11.1
2016-Apr-28 13:59 329 0 gusting 4 11.7
2016-Apr-28 13:54 330 0 gusting 4 11.1
2016-Apr-28 13:49 267 11.1
2016-Apr-28 13:44 267 11.1
2016-Apr-28 13:39 267 1 gusting 5 11.1
2016-Apr-28 13:34 273 1 gusting 5 11.1
2016-Apr-28 13:29 255 3 gusting 6 11.1
2016-Apr-28 13:24 278 2 gusting 6 11.1
2016-Apr-28 13:19 263 3 gusting 6 11.1
2016-Apr-28 13:14 288 2 gusting 5 11.1
2016-Apr-28 13:09 317 3 gusting 5 11.1
2016-Apr-28 13:04 316 3 gusting 5 11.7
2016-Apr-28 12:59 309 2 gusting 4 11.1
2016-Apr-28 12:54 319 2 gusting 6 11.1
2016-Apr-28 12:49 302 4 gusting 6 11.1
2016-Apr-28 12:44 350 3 gusting 5 11.1
2016-Apr-28 12:39 292 2 gusting 6 11.1
2016-Apr-28 12:34 302 4 gusting 6 11.1
2016-Apr-28 12:29 309 3 gusting 5 11.1
2016-Apr-28 12:24 339 2 gusting 6 11.1
2016-Apr-28 12:19 315 5 gusting 6 11.1
2016-Apr-28 12:14 281 4 gusting 6 11.1
2016-Apr-28 12:09 290 3 gusting 5 11.1
2016-Apr-28 12:04 320 1 gusting 5 11.1
2016-Apr-28 11:59 293 2 gusting 5 11.1
2016-Apr-28 11:54 281 2 gusting 5 11.1
2016-Apr-28 11:49 267 0 gusting 6 11.7
2016-Apr-28 11:44 271 3 gusting 6 11.7
2016-Apr-28 11:39 309 0 gusting 6 11.7
2016-Apr-28 11:34 306 4 gusting 7 11.7
2016-Apr-28 11:29 266 4 gusting 9 11.7
2016-Apr-28 11:24 267 5 gusting 9 12.2
2016-Apr-28 11:19 311 5 gusting 6 12.2
2016-Apr-28 11:14 338 3 gusting 6 12.2
2016-Apr-28 11:09 024 4 gusting 6 12.2
2016-Apr-28 11:04 296 2 gusting 6 12.2
2016-Apr-28 10:59 279 4 gusting 7 12.2
2016-Apr-28 10:54 340 5 gusting 8 12.2
2016-Apr-28 10:49 360 6 gusting 9 12.2
2016-Apr-28 10:44 338 6 gusting 9 12.8
2016-Apr-28 10:39 326 5 gusting 10 12.8
2016-Apr-28 10:34 317 6 gusting 10 13.3
2016-Apr-28 10:29 323 6 gusting 10 13.3
2016-Apr-28 10:24 300 5 gusting 7 13.9
2016-Apr-28 10:19 330 4 gusting 9 13.9
2016-Apr-28 10:14 009 4 gusting 9 13.9
2016-Apr-28 10:09 355 6 gusting 9 13.9
2016-Apr-28 10:04 355 6 gusting 9 13.9
2016-Apr-28 09:59 033 6 gusting 9 13.9
2016-Apr-28 09:54 342 6 gusting 8 13.9
2016-Apr-28 09:49 005 3 gusting 8 13.9
2016-Apr-28 09:44 355 6 gusting 7 13.3
2016-Apr-28 09:39 344 5 gusting 7 13.3
2016-Apr-28 09:34 360 3 gusting 9 13.9
2016-Apr-28 09:29 306 5 gusting 9 13.9
2016-Apr-28 09:24 355 4 gusting 9 13.9
2016-Apr-28 09:19 338 6 gusting 10 13.3
2016-Apr-28 09:14 030 6 gusting 10 13.3
2016-Apr-28 09:09 327 6 gusting 7 13.9
2016-Apr-28 09:04 334 3 gusting 7 13.3
2016-Apr-28 08:59 321 3 gusting 6 13.3
2016-Apr-28 08:54 335 4 gusting 6 13.3
2016-Apr-28 08:49 350 3 gusting 7 13.3
2016-Apr-28 08:44 340 6 gusting 7 13.3
2016-Apr-28 08:39 323 6 gusting 7 13.3
2016-Apr-28 08:34 334 5 gusting 7 13.3
2016-Apr-28 08:29 351 5 gusting 7 13.9
2016-Apr-28 08:24 327 5 gusting 7 13.9
2016-Apr-28 08:19 338 5 gusting 7 13.3
2016-Apr-28 08:14 346 5 gusting 7 13.3
2016-Apr-28 08:09 296 4 gusting 10 13.9
2016-Apr-28 08:04 318 4 gusting 11 13.9
2016-Apr-28 07:59 348 6 gusting 11 13.9
2016-Apr-28 07:53 347 6 gusting 8 13.9
2016-Apr-28 07:49 330 5 gusting 7 13.9
2016-Apr-28 07:44 316 3 gusting 8 13.9
2016-Apr-28 07:39 345 5 gusting 8 13.3
2016-Apr-28 07:34 317 3 gusting 7 13.9
2016-Apr-28 07:29 347 3 gusting 9 13.3
2016-Apr-28 07:24 355 5 gusting 9 13.3
2016-Apr-28 07:19 319 4 gusting 8 12.8
2016-Apr-28 07:14 342 5 gusting 9 12.8
2016-Apr-28 07:09 325 6 gusting 9 12.8
2016-Apr-28 07:04 321 3 gusting 10 12.8
2016-Apr-28 06:59 334 7 gusting 10 12.8
2016-Apr-28 06:54 338 6 gusting 8 13.3
2016-Apr-28 06:49 351 4 gusting 9 13.3
2016-Apr-28 06:44 313 7 gusting 9 13.3
2016-Apr-28 06:39 334 5 gusting 8 13.3
2016-Apr-28 06:34 340 5 gusting 8 13.9
2016-Apr-28 06:29 360 6 gusting 8 13.9
2016-Apr-28 06:24 294 4 gusting 6 13.9
2016-Apr-28 06:19 339 3 gusting 6 13.9
2016-Apr-28 06:14 329 3 gusting 6 13.9
2016-Apr-28 06:09 005 3 gusting 6 13.9
2016-Apr-28 06:04 331 4 gusting 7 13.9
2016-Apr-28 05:59 348 5 gusting 7 13.9
2016-Apr-28 05:54 011 4 gusting 6 13.3
2016-Apr-28 05:49 037 4 gusting 5 13.3
2016-Apr-28 05:44 041 1 gusting 4 13.3
2016-Apr-28 05:39 225 12.8
2016-Apr-28 05:34 225 12.8
2016-Apr-28 05:28 225 12.8
2016-Apr-28 05:24 225 12.8
2016-Apr-28 05:19 225 0 gusting 3 12.8
2016-Apr-28 05:14 225 12.8
2016-Apr-28 05:09 225 12.8
2016-Apr-28 05:04 225 12.8
2016-Apr-28 04:59 225 2 gusting 3 12.8
2016-Apr-28 04:54 252 12.8
2016-Apr-28 04:49 252 12.8
2016-Apr-28 04:44 252 0 gusting 4 12.8
2016-Apr-28 04:39 252 2 gusting 4 12.8
2016-Apr-28 04:34 252 1 gusting 2 12.8
2016-Apr-28 04:28 252 1 gusting 3 12.8
2016-Apr-28 04:23 252 12.8
2016-Apr-28 04:19 252 1 gusting 3 12.8
2016-Apr-28 04:14 252 12.8
2016-Apr-28 04:09 252 12.8
2016-Apr-28 04:04 252 0 gusting 6 12.8
2016-Apr-28 03:58 252 2 gusting 6 13.3
2016-Apr-28 03:54 310 0 gusting 5 13.3
2016-Apr-28 03:49 212 13.3
2016-Apr-28 03:44 212 0 gusting 3 13.3
2016-Apr-28 03:39 212 0 gusting 5 13.3
2016-Apr-28 03:34 212 2 gusting 5 13.3
2016-Apr-28 03:29 212 3 gusting 4 13.3
2016-Apr-28 03:24 212 2 gusting 4 13.3
2016-Apr-28 03:19 212 2 gusting 5 13.3
2016-Apr-28 03:14 212 2 gusting 4 13.3
2016-Apr-28 03:09 212 2 gusting 5 13.3
2016-Apr-28 03:04 212 1 gusting 5 13.3
2016-Apr-28 02:59 212 1 gusting 2 13.3
2016-Apr-28 02:54 212 1 gusting 4 13.3
2016-Apr-28 02:49 212 1 gusting 4 13.3
2016-Apr-28 02:44 212 1 gusting 4 13.9
2016-Apr-28 02:39 212 2 gusting 4 13.9
2016-Apr-28 02:34 212 1 gusting 4 13.9
2016-Apr-28 02:29 261 2 gusting 3 13.9
2016-Apr-28 02:24 263 13.9
2016-Apr-28 02:19 263 2 gusting 2 13.9
2016-Apr-28 02:13 263 13.9
2016-Apr-28 02:09 263 1 gusting 4 13.9
2016-Apr-28 02:03 263 13.9
2016-Apr-28 01:59 263 14.4
2016-Apr-28 01:54 263 14.4
2016-Apr-28 01:49 263 2 gusting 4 14.4
2016-Apr-28 01:43 208 14.4
2016-Apr-28 01:39 208 14.4
2016-Apr-28 01:34 208 1 gusting 5 14.4
2016-Apr-28 01:29 169 3 gusting 4 14.4
2016-Apr-28 01:24 169 1 gusting 5 14.4
2016-Apr-28 01:19 169 1 gusting 5 14.4
2016-Apr-28 01:13 172 2 gusting 4 14.4
2016-Apr-28 01:09 172 3 gusting 5 14.4
2016-Apr-28 01:03 172 2 gusting 5 14.4
2016-Apr-28 00:59 172 3 gusting 5 14.4
2016-Apr-28 00:54 173 1 gusting 4 14.4
2016-Apr-28 00:48 173 14.4
2016-Apr-28 00:44 173 14.4
2016-Apr-28 00:38 173 14.4
2016-Apr-28 00:34 173 15.0
2016-Apr-28 00:29 173 1 gusting 3 15.0
2016-Apr-28 00:24 173 1 gusting 2 15.0
2016-Apr-28 00:18 173 0 gusting 5 15.0
2016-Apr-28 00:13 173 2 gusting 5 15.0
2016-Apr-28 00:09 175 2 gusting 5 15.0
2016-Apr-28 00:04 175 3 gusting 5 15.0
2016-Apr-27 23:58 187 2 gusting 6 15.0
2016-Apr-27 23:54 188 4 gusting 6 15.0
2016-Apr-27 23:48 195 4 gusting 6 15.0
2016-Apr-27 23:43 155 3 gusting 6 15.0
2016-Apr-27 23:38 177 3 gusting 6 15.0
2016-Apr-27 23:34 171 4 gusting 9 15.0
2016-Apr-27 23:29 202 5 gusting 9 15.0
2016-Apr-27 23:24 207 6 gusting 9 15.0
2016-Apr-27 23:19 182 4 gusting 9 15.0
2016-Apr-27 23:13 199 5 gusting 11 15.0
2016-Apr-27 23:09 215 6 gusting 12 15.0
2016-Apr-27 23:03 154 6 gusting 12 15.0
2016-Apr-27 22:59 183 7 gusting 11 15.0
2016-Apr-27 22:54 192 6 gusting 11 15.0
2016-Apr-27 22:49 172 6 gusting 12 15.0
2016-Apr-27 22:43 186 6 gusting 9 15.0
2016-Apr-27 22:39 202 6 gusting 10 15.0
2016-Apr-27 22:34 211 6 gusting 12 15.0
2016-Apr-27 22:29 186 6 gusting 12 15.0
2016-Apr-27 22:23 217 7 gusting 13 15.0
2016-Apr-27 22:18 236 7 gusting 13 15.0
2016-Apr-27 22:13 189 8 gusting 13 14.4
2016-Apr-27 22:09 181 6 gusting 10 14.4
2016-Apr-27 22:04 210 5 gusting 10 14.4
2016-Apr-27 21:59 229 5 gusting 7 14.4
2016-Apr-27 21:49 240 3 gusting 6 14.4
2016-Apr-27 21:44 230 2 gusting 6 15.0
2016-Apr-27 21:39 211 15.0
2016-Apr-27 21:34 192 3 gusting 6 15.0
2016-Apr-27 21:29 180 4 gusting 6 15.0
2016-Apr-27 21:24 224 3 gusting 6 15.0
2016-Apr-27 21:19 207 1 gusting 5 15.0
2016-Apr-27 21:14 195 1 gusting 5 15.0
2016-Apr-27 21:04 127 15.6